Location: Grieser Field
(39.7333°N, 81.7975°W)
Time: 23:37:32
(UTC-05:00)

Hubble Space Telescope - Visible Passes

Search period start: 12 February 2016 00:00
Search period end: 22 February 2016 00:00
Orbit: 540 x 543 km, 28.5° (Epoch: 12 February)

Date Brightness Start Highest point End Pass type
(mag) Time Alt. Az. Time Alt. Az. Time Alt. Az.
12 Feb 3.1 19:58:27 10° SSW 19:59:58 14° S 19:59:58 14° S visible
13 Feb 2.9 19:48:41 10° SSW 19:51:10 16° S 19:51:10 16° S visible
14 Feb 2.8 19:38:59 10° SW 19:41:39 17° S 19:42:21 16° SSE visible
15 Feb 2.8 19:29:22 10° SW 19:32:06 17° S 19:33:31 15° SSE visible
16 Feb 2.9 19:19:48 10° SW 19:22:32 17° S 19:24:42 12° SE visible
17 Feb 3.0 19:10:16 10° SW 19:12:58 17° S 19:15:41 10° SE visible
18 Feb 3.1 19:00:49 10° SW 19:03:24 16° S 19:06:00 10° SSE visible
19 Feb 3.2 18:51:25 10° SW 18:53:49 15° S 18:56:15 10° SSE visible
20 Feb 3.3 18:42:06 10° SW 18:44:15 14° S 18:46:23 10° SSE visible
